Montgomery, AL

10:51 PM CDT on May 20, 2018 (GMT -0500)
Montgomery Regional

Weather History for KMGM - September, 2013

Change the Weather History Date:

Sunday, September 15, 2013

  Actual Average Record
Temperature  
Mean Temperature 77 °F 77 °F  
Max Temperature 92 °F 88 °F 101 °F (1927)
Min Temperature 61 °F 66 °F 50 °F (1985)
Degree Days  
Heating Degree Days 0 0  
Month to date heating degree days 0 0  
Since 1 July heating degree days 0 0  
Cooling Degree Days 12 12  
Month to date cooling degree days 242 203  
Year to date cooling degree days 2064 1992  
Growing Degree Days 26 (Base 50)    
Moisture  
Dew Point 64 °F    
Average Humidity 66    
Maximum Humidity 90    
Minimum Humidity 41    
Precipitation  
Precipitation 0.00 in 0.14 in 2.30 in (1946)
Month to date precipitation 0.10 2.08  
Year to date precipitation 43.11 38.79  
Sea Level Pressure  
Sea Level Pressure 30.06 in    
Wind  
Wind Speed 3 mph (NNE)    
Max Wind Speed 9 mph    
Max Gust Speed 14 mph    
Visibility 10 miles    
Events      
T = Trace of Precipitation, MM = Missing Value Source: NWS Daily Summary

Daily Weather History Graph

Daily Weather History Graph

Search for Another Location

Airport or City:

Astronomy

Sep. 15, 2013 Rise Set
Actual Time 6:29 AM CDT 6:51 PM CDT
Civil Twilight 6:04 AM CDT 7:15 PM CDT
Nautical Twilight 5:36 AM CDT 7:44 PM CDT
Astronomical Twilight 5:06 AM CDT 8:13 PM CDT
Moon 4:08 PM CDT (9/15) 2:18 AM CDT (9/15)
Length of Visible Light 13h 10m
Length of Day
12h 21m
Waxing Gibbous, 82% of the Moon is Illuminated
Sep 15
Waxing Gibbous
Sep 19
Full
Sep 26
Last Quarter
Oct 4
New
Oct 11
First Quarter

Hourly Weather History & Observations

Time (CDT) Temp. Heat Index Dew Point Humidity Pressure Visibility Wind Dir Wind Speed Gust Speed Precip Events Conditions
12:53 AM 62.1 °F - 57.9 °F 86% 30.04 in 10.0 mi Calm Calm - N/A   Clear
1:53 AM 62.1 °F - 57.9 °F 86% 30.03 in 10.0 mi Calm Calm - N/A   Clear
2:53 AM 62.1 °F - 57.9 °F 86% 30.03 in 10.0 mi Calm Calm - N/A   Clear
3:53 AM 63.0 °F - 59.0 °F 87% 30.03 in 10.0 mi Calm Calm - N/A   Clear
4:53 AM 63.0 °F - 59.0 °F 87% 30.04 in 10.0 mi Calm Calm - N/A   Clear
5:53 AM 64.0 °F - 60.1 °F 87% 30.06 in 10.0 mi North 3.5 mph - N/A   Mostly Cloudy
6:53 AM 64.9 °F - 60.1 °F 84% 30.07 in 10.0 mi NNE 3.5 mph - N/A   Mostly Cloudy
7:53 AM 69.1 °F - 62.1 °F 78% 30.08 in 10.0 mi NE 4.6 mph - N/A   Clear
8:53 AM 73.9 °F - 64.0 °F 71% 30.09 in 10.0 mi East 4.6 mph - N/A   Clear
9:53 AM 79.0 °F - 66.0 °F 64% 30.10 in 10.0 mi East 5.8 mph - N/A   Clear
10:53 AM 84.0 °F 86.3 °F 66.0 °F 55% 30.11 in 10.0 mi Calm Calm - N/A   Clear
11:53 AM 88.0 °F 89.6 °F 64.9 °F 46% 30.09 in 10.0 mi Variable 3.5 mph - N/A   Clear
12:53 PM 89.1 °F 90.3 °F 64.0 °F 43% 30.08 in 10.0 mi Variable 4.6 mph - N/A   Mostly Cloudy
1:53 PM 88.0 °F 89.3 °F 64.0 °F 45% 30.06 in 10.0 mi Calm Calm - N/A   Mostly Cloudy
2:53 PM 91.9 °F 94.1 °F 64.9 °F 41% 30.05 in 10.0 mi NNW 3.5 mph - N/A   Mostly Cloudy
3:53 PM 91.0 °F 93.0 °F 64.9 °F 42% 30.04 in 10.0 mi North 4.6 mph - N/A   Scattered Clouds
4:53 PM 91.0 °F 93.8 °F 66.0 °F 44% 30.04 in 10.0 mi North 8.1 mph - N/A   Partly Cloudy
5:53 PM 88.0 °F 90.3 °F 66.0 °F 48% 30.04 in 10.0 mi NNW 4.6 mph - N/A   Clear
6:53 PM 84.9 °F 88.2 °F 68.0 °F 57% 30.05 in 10.0 mi North 4.6 mph - N/A   Clear
7:53 PM 82.0 °F 84.9 °F 68.0 °F 62% 30.06 in 10.0 mi NE 4.6 mph - N/A   Clear
8:53 PM 79.0 °F - 69.1 °F 72% 30.09 in 10.0 mi Calm Calm - N/A   Clear
9:53 PM 77.0 °F - 69.1 °F 76% 30.09 in 10.0 mi Calm Calm - N/A   Clear
10:53 PM 73.9 °F - 69.1 °F 85% 30.08 in 10.0 mi East 3.5 mph - N/A   Clear
11:53 PM 75.0 °F - 69.1 °F 82% 30.08 in 10.0 mi Calm Calm - N/A   Clear